This is the latest recevied weather packets stored in our database for station/object W6DSP. If no packets are shown the sender has not sent any weather packets the latest 10 day(s).
| Time | Temp. | Humidity | Pressure | Rain* | Wind** | Luminosity | Snow |
|---|---|---|---|---|---|---|---|
| 1778191865 | 12.78° C | 57% | 1014.2 hPa | 0 mm | - | - | - |
| 1778191143 | 12.78° C | 58% | 1014.3 hPa | 0 mm | - | - | - |
| 1778190452 | 12.78° C | 59% | 1014.2 hPa | 0 mm | - | - | - |
| 1778189695 | 12.78° C | 59% | 1014.2 hPa | 0 mm | - | - | - |
| 1778188939 | 12.78° C | 57% | 1014.1 hPa | 0 mm | - | - | - |
| 1778188197 | 13.33° C | 56% | 1014.2 hPa | 0 mm | - | - | - |
| 1778187468 | 13.89° C | 50% | 1014.1 hPa | 0 mm | - | - | - |
| 1778186736 | 13.89° C | 49% | 1013.8 hPa | 0 mm | - | - | - |
| 1778186047 | 14.44° C | 43% | 1013.7 hPa | 0 mm | - | - | - |
| 1778185339 | 15.56° C | 45% | 1013.5 hPa | 0 mm | - | - | - |
| 1778184639 | 15.56° C | 44% | 1013.7 hPa | 0 mm | - | - | - |
| 1778183934 | 15.56° C | 41% | 1013.6 hPa | 0 mm | - | - | - |
| 1778183230 | 15° C | 40% | 1014 hPa | 0 mm | - | - | - |
| 1778182525 | 15° C | 42% | 1014.1 hPa | 0 mm | - | - | - |
| 1778181782 | 15.56° C | 42% | 1014.3 hPa | 0 mm | - | - | - |
| 1778181023 | 15.56° C | 43% | 1014.3 hPa | 0 mm | - | - | - |
| 1778180281 | 15.56° C | 42% | 1014.4 hPa | 0 mm | - | - | - |
| 1778179574 | 15° C | 47% | 1014.4 hPa | 0 mm | - | - | - |
| 1778178881 | 15° C | 46% | 1014.4 hPa | 0 mm | - | - | - |
| 1778178129 | 15° C | 47% | 1014.7 hPa | 0 mm | - | - | - |
| 1778177383 | 15.56° C | 41% | 1014.7 hPa | 0 mm | - | - | - |
| 1778176664 | 15° C | 45% | 1014.9 hPa | 0 mm | - | - | - |
| 1778175948 | 13.89° C | 44% | 1015 hPa | 0 mm | - | - | - |
| 1778175252 | 15° C | 49% | 1015.1 hPa | 0 mm | - | - | - |
| 1778174514 | 14.44° C | 45% | 1015.3 hPa | 0 mm | - | - | - |
* Rain latest hour (hover to see other rain measurements)
** Current wind speed in m/s (hover to see current wind gust speed)